Location: Unspecified
(35.7250°N, 0.0000°E)
Time: 09:12:14
(UTC+00:00)

Explorer 7 - Pass Details

Date: 23 June 2019
Orbit: 485 x 680 km, 50.3° (Epoch: 24 July)

Event Time Altitude Azimuth Distance (km) Brightness Sun altitude
Rises 15:28:16 0° 302° (WNW) 2,999 11.2 44.1°
Reaches altitude 10° 15:30:42 10° 295° (WNW) 2,099 10.7 43.6°
Maximum altitude 15:35:14 39° 227° (SW) 1,009 9.3 42.7°
Drops below altitude 10° 15:39:47 10° 159° (SSE) 2,103 9.7 41.8°
Sets 15:42:14 0° 152° (SSE) 3,005 10.4 41.3°
